[[{"header":{"parameterUnit":"m.s-1","parameterCategory":1,"la1":30.2991,"la2":30.254,"lo1":-89.0895,"lo2":-89.0444,"dy":0.0017,"dx":0.0017,"nx":28,"ny":28,"refTime":"2024-12-14T09:00:00:Z","depth":0,"parameterNumber":2,"parameterNumberName":"U-component_of_WINDS"},"data":[0,0,0,0,0,0,0,0,0,0,0,0,0,0,0,0,0,0,0,0,0,0,0,0,0,0,0,0,0,0,0,0,0,0,0,0,0,0,0,0,0,0,0,0,0,0,0,0,0,0,0,0,0,0,0,0,0,0,-3.9664,-3.9663,0,-3.965,-3.965,-3.965,-3.9566,-3.9564,-3.9562,-3.956,-3.9549,-3.955,-3.9552,0,0,0,0,0,0,0,0,0,0,0,0,0,-3.9619,-3.962,-3.9664,-3.9663,-3.9663,-3.965,-3.965,-3.965,-3.9567,-3.9564,-3.9562,-3.9559,-3.9548,-3.955,-3.9552,0,0,0,0,0,0,0,0,0,0,0,0,0,-3.9626,-3.9621,-3.9664,-3.962,-3.9616,-3.9651,-3.965,-3.965,-3.9567,-3.9564,-3.9561,-3.9558,-3.9547,-3.955,-3.9552,-3.9628,0,0,-3.9559,-3.956,0,0,0,0,0,0,0,0,-3.9625,-3.9627,-3.9626,-3.9623,-3.9618,-3.9607,-3.963,-3.9643,-3.9568,-3.9586,-3.956,-3.9557,-3.9571,-3.9571,-3.9575,-3.9628,-3.9627,-3.956,-3.9561,-3.9562,-3.9563,0,0,0,0,0,0,0,-3.9625,-3.9627,-3.9658,-3.9627,-3.9622,-3.9602,-3.96,-3.9632,-3.9596,-3.9584,-3.9578,-3.9577,-3.9568,-3.9573,-3.9574,-3.9627,-3.956,-3.9562,-3.9563,-3.9564,-3.9743,-3.9747,0,0,0,0,0,0,-3.963,-3.9628,-3.9659,-3.9658,-3.9614,-3.9605,-3.9602,-3.9614,-3.9595,-3.9589,-3.958,-3.9573,-3.957,-3.9572,-3.9574,-3.9662,-3.9562,-3.9564,-3.9566,-3.974,-3.9744,-3.9748,0,0,0,0,0,0,-3.963,-3.9634,-3.9659,-3.9641,-3.9643,-3.9609,-3.9623,-3.9615,-3.962,-3.9592,-3.9585,-3.9592,-3.9568,-3.957,-3.9616,-3.966,-3.9565,-3.9568,-3.9736,-3.9741,-3.9746,-3.9839,0,0,0,0,0,0,-3.9629,-3.9634,-3.9662,-3.9642,-3.9644,-3.9701,-3.9625,-3.9617,-3.9624,-3.9616,-3.9601,-3.9596,-3.9566,-3.9612,-3.9618,-3.9662,-3.9569,-3.9732,-3.9738,-3.9744,-3.9832,-3.9847,-3.986,0,0,0,0,0,-3.9627,-3.9688,-3.9663,-3.9668,-3.9678,-3.9703,-3.9704,-3.9668,-3.9628,-3.9656,-3.9639,-3.9596,-3.9655,-3.9618,-3.9623,-3.9669,-3.9729,-3.9737,-3.9744,-3.9826,-3.9844,-3.9859,0,0,0,0,0,0,-3.9714,-3.9685,-3.9657,-3.9713,-3.9712,-3.9689,-3.9723,-3.9688,-3.9698,-3.9689,-3.9645,-3.9642,-3.9695,-3.9686,-3.9645,-3.9742,-3.9685,-3.9694,-3.9745,-3.9762,-3.9776,-3.9776,-3.9571,0,0,0,0,0,-3.9739,-3.9762,-3.9736,-3.9788,-3.9789,-3.9757,-3.9766,-3.9739,-3.9735,-3.9734,-3.9719,-3.9718,-3.9736,-3.9749,-3.9764,-3.9831,-3.9827,-3.9866,-3.9879,-3.9891,-3.9899,-3.9935,-3.9952,-3.9772,-3.9772,-3.9772,0,0,-3.9792,-3.9779,-3.9796,-3.9805,-3.98,-3.9826,-3.9756,-3.9785,-3.9804,-3.9738,-3.978,-3.977,-3.9766,-3.9823,-3.9847,-3.9818,-3.9948,-3.99,-3.991,-3.9911,-3.9944,-3.9961,-3.9976,-3.9777,-3.9776,-3.9776,0,0,-3.9901,-3.9894,-3.9937,-3.9934,-3.9928,-3.9907,-3.9918,-3.9901,-3.9892,-3.9933,-3.9885,-3.9907,-3.9939,-3.9939,-3.9943,-4.0056,-4.0017,-4.0062,-4.0133,-4.0169,-4.0183,-4.0195,-4.0236,-4.0251,-4.007,-4.007,-4.0071,0,-3.9967,-4.0002,-3.9964,-3.9996,-4.0002,-3.9945,-3.9989,-3.9989,-3.9989,-3.9995,-3.9962,-4.0002,-3.9995,-4.0052,-4.0079,-4.0085,-4.0096,-4.0062,-4.0184,-4.0196,-4.0207,-4.0245,-4.026,-4.0076,-4.0075,-4.0075,-4.0074,0,-4.0085,-4.0111,-4.0146,-4.0147,-4.0158,-4.0196,-4.0164,-4.018,-4.0153,-4.0136,-4.018,-4.017,-4.0183,-4.0195,-4.0168,-4.0248,-4.023,-4.0192,-4.0133,-4.023,-4.0265,-4.0279,-4.0084,-4.0082,-4.008,-4.0079,0,0,-4.0244,-4.0226,-4.024,-4.024,-4.0231,-4.025,-4.0288,-4.03,-4.0315,-4.0318,-4.0348,-4.0378,-4.0343,-4.0348,-4.0321,-4.0353,-4.0443,-4.031,-4.0309,-4.0335,-4.0532,-4.056,-4.0578,-4.0419,-4.0422,-4.0424,-4.0532,0,-4.0349,-4.0409,-4.0377,-4.0443,-4.0467,-4.0415,-4.0447,-4.0446,-4.0432,-4.0451,-4.0436,-4.0458,-4.0409,-4.0412,-4.0441,-4.0426,-4.0482,-4.0418,-4.0447,-4.0449,-4.0448,-4.0596,-4.0625,-4.0728,-4.0546,-4.0548,-4.055,0,-4.0477,-4.0486,-4.0554,-4.0542,-4.0551,-4.0581,-4.0591,-4.061,-4.0608,-4.0596,-4.0603,-4.057,-4.0607,-4.055,-4.0601,-4.0559,-4.0569,-4.0564,-4.0567,-4.0567,-4.0504,-4.0599,-4.0759,-4.0775,-4.0571,-4.0569,-4.0568,0,-4.0586,-4.0615,-4.066,-4.0663,-4.065,-4.0672,-4.0668,-4.0664,-4.0674,-4.0684,-4.069,-4.0705,-4.0712,-4.0725,-4.0697,-4.0658,-4.0752,-4.0693,-4.0743,-4.0744,-4.0764,-4.0763,-4.0927,-4.0773,-4.0773,-4.0773,-4.0772,0,-4.0705,-4.0749,-4.0709,-4.0737,-4.0785,-4.0749,-4.0798,-4.0788,-4.0786,-4.0811,-4.0768,-4.0793,-4.0756,-4.0778,-4.0757,-4.0803,-4.0807,-4.0799,-4.0792,-4.0801,-4.0803,-4.0806,-4.0798,-4.0777,-4.0776,-4.0775,-4.0774,0,-4.0833,-4.0809,-4.0854,-4.084,-4.0838,-4.0874,-4.0862,-4.0887,-4.0872,-4.0905,-4.0911,-4.0886,-4.091,-4.0885,-4.0907,-4.0893,-4.0955,-4.0938,-4.0955,-4.095,-4.1001,-4.0997,-4.1173,-4.1194,-4.1028,-4.103,-4.1031,0,-4.091,-4.0942,-4.0932,-4.0946,-4.0945,-4.0968,-4.0979,-4.0946,-4.0959,-4.0962,-4.0988,-4.1008,-4.1023,-4.1064,-4.1049,-4.1066,-4.105,-4.1111,-4.1052,-4.1061,-4.105,-4.1048,-4.1051,-4.1122,-4.1124,-4.1125,-4.1127,0,-4.1048,-4.1035,-4.1052,-4.1066,-4.108,-4.1089,-4.1095,-4.111,-4.1076,-4.1093,-4.1117,-4.1129,-4.1152,-4.1174,-4.1187,-4.1184,-4.1151,-4.1146,-4.1158,-4.1167,-4.1175,-4.1171,-4.0986,-4.1141,-4.114,-4.1139,-4.1138,-4.1137,-4.1152,-4.1179,-4.1176,-4.1197,-4.1199,-4.1206,-4.123,-4.1218,-4.1238,-4.1254,-4.1234,-4.1264,-4.1265,-4.128,-4.1281,-4.1305,-4.1279,-4.1298,-4.1302,-4.1306,-4.1314,-4.1173,-4.1308,-4.1307,-4.1307,-4.1307,-4.1306,0,-4.1287,-4.1283,-4.1303,-4.1314,-4.1331,-4.1299,-4.1305,-4.1321,-4.1348,-4.1352,-4.1367,-4.1397,-4.1418,-4.1406,-4.1425,-4.1446,-4.1431,-4.1452,-4.1449,-4.145,-4.1336,-4.1323,-4.1464,-4.1464,-4.1464,-4.1464,-4.1464,-4.1464,-4.1359,-4.1403,-4.1391,-4.1436,-4.1433,-4.1462,-4.1468,-4.1476,-4.1478,-4.1512,-4.153,-4.1522,-4.152,-4.1539,-4.1558,-4.1554,-4.1562,-4.1589,-4.1579,-4.1473,-4.1457,-4.1442,-4.143,-4.1591,-4.1591,-4.169,-4.1691,-4.1692]},{"header":{"parameterUnit":"m.s-1","parameterCategory":1,"la1":30.2991,"la2":30.254,"lo1":-89.0895,"lo2":-89.0444,"dy":0.0017,"dx":0.0017,"nx":28,"ny":28,"refTime":"2024-12-14T09:00:00:Z","depth":0,"parameterNumber":3,"parameterNumberName":"V-component_of_WINDS"},"data":[0,0,0,0,0,0,0,0,0,0,0,0,0,0,0,0,0,0,0,0,0,0,0,0,0,0,0,0,0,0,0,0,0,0,0,0,0,0,0,0,0,0,0,0,0,0,0,0,0,0,0,0,0,0,0,0,0,0,-0.6543,-0.6544,0,-0.6638,-0.6639,-0.664,-0.6659,-0.6659,-0.6658,-0.6657,-0.6754,-0.6757,-0.676,0,0,0,0,0,0,0,0,0,0,0,0,0,-0.6378,-0.6381,-0.6543,-0.6544,-0.6546,-0.6637,-0.6639,-0.664,-0.6659,-0.6659,-0.6658,-0.6657,-0.6752,-0.6756,-0.676,0,0,0,0,0,0,0,0,0,0,0,0,0,-0.6459,-0.6382,-0.6543,-0.6566,-0.6569,-0.6637,-0.6639,-0.664,-0.666,-0.6659,-0.6658,-0.6657,-0.6751,-0.6756,-0.6761,-0.6812,0,0,-0.6775,-0.6778,0,0,0,0,0,0,0,0,-0.6454,-0.6465,-0.6562,-0.6565,-0.6568,-0.6636,-0.6616,-0.6698,-0.666,-0.6625,-0.6657,-0.6656,-0.6715,-0.6723,-0.6743,-0.6816,-0.682,-0.6776,-0.6779,-0.6781,-0.6782,0,0,0,0,0,0,0,-0.6448,-0.6461,-0.6581,-0.6563,-0.6567,-0.6571,-0.6582,-0.6631,-0.6675,-0.6628,-0.663,-0.6641,-0.6717,-0.6738,-0.6745,-0.6822,-0.6776,-0.678,-0.6783,-0.6785,-0.694,-0.6941,0,0,0,0,0,0,-0.6439,-0.6456,-0.6578,-0.6583,-0.6507,-0.6575,-0.6587,-0.6615,-0.6675,-0.6683,-0.6642,-0.6641,-0.673,-0.674,-0.6749,-0.6811,-0.6781,-0.6785,-0.6788,-0.6938,-0.694,-0.6941,0,0,0,0,0,0,-0.6435,-0.645,-0.6574,-0.652,-0.6536,-0.6579,-0.6611,-0.6618,-0.6639,-0.6685,-0.6692,-0.6656,-0.673,-0.6742,-0.6796,-0.6815,-0.6788,-0.6792,-0.6937,-0.6939,-0.6941,-0.6938,0,0,0,0,0,0,-0.643,-0.6448,-0.6469,-0.652,-0.6539,-0.662,-0.6612,-0.662,-0.6647,-0.6648,-0.67,-0.6707,-0.673,-0.6788,-0.68,-0.6821,-0.6796,-0.6935,-0.6938,-0.694,-0.6936,-0.6939,-0.6942,0,0,0,0,0,-0.6424,-0.6465,-0.647,-0.6484,-0.6566,-0.6621,-0.6631,-0.6657,-0.6649,-0.6669,-0.6698,-0.6706,-0.6811,-0.6794,-0.6807,-0.683,-0.6934,-0.6937,-0.694,-0.6935,-0.6939,-0.6942,0,0,0,0,0,0,-0.6414,-0.6472,-0.6478,-0.6536,-0.6573,-0.6624,-0.6651,-0.666,-0.67,-0.6699,-0.6728,-0.674,-0.6791,-0.6816,-0.6796,-0.6881,-0.6872,-0.6878,-0.6864,-0.6867,-0.687,-0.6863,-0.68,0,0,0,0,0,-0.6419,-0.6459,-0.6507,-0.6553,-0.6572,-0.6608,-0.6633,-0.6649,-0.6688,-0.6704,-0.6737,-0.6775,-0.6816,-0.6843,-0.6884,-0.6939,-0.695,-0.6962,-0.6964,-0.6966,-0.6971,-0.7,-0.7006,-0.695,-0.695,-0.695,0,0,-0.6429,-0.6465,-0.6489,-0.6552,-0.6583,-0.6623,-0.6621,-0.6664,-0.6694,-0.6711,-0.6763,-0.6788,-0.6833,-0.6887,-0.6912,-0.6909,-0.6988,-0.697,-0.6971,-0.6975,-0.7004,-0.7009,-0.7014,-0.6952,-0.6952,-0.6951,0,0,-0.6467,-0.6499,-0.6541,-0.6571,-0.6617,-0.664,-0.665,-0.6699,-0.6716,-0.6769,-0.6782,-0.6817,-0.6889,-0.6919,-0.6944,-0.6991,-0.6999,-0.7003,-0.7017,-0.7046,-0.705,-0.7054,-0.707,-0.7076,-0.7007,-0.7007,-0.7007,0,-0.6474,-0.6535,-0.6561,-0.6603,-0.663,-0.6646,-0.6687,-0.6716,-0.6773,-0.679,-0.6786,-0.6874,-0.6905,-0.6966,-0.6977,-0.6997,-0.7008,-0.6998,-0.7048,-0.7052,-0.7056,-0.7071,-0.7077,-0.7008,-0.7008,-0.7008,-0.7008,0,-0.654,-0.6582,-0.661,-0.6664,-0.6694,-0.6736,-0.6767,-0.6794,-0.6807,-0.683,-0.6883,-0.692,-0.6968,-0.6983,-0.6996,-0.7045,-0.7042,-0.7042,-0.7033,-0.7061,-0.7076,-0.7082,-0.7008,-0.7008,-0.7008,-0.7008,0,0,-0.6577,-0.6643,-0.6652,-0.6676,-0.6727,-0.676,-0.6802,-0.6848,-0.687,-0.6908,-0.6943,-0.7002,-0.7001,-0.7029,-0.7046,-0.7071,-0.7104,-0.7068,-0.7069,-0.7073,-0.7159,-0.7158,-0.7165,-0.7109,-0.7111,-0.7112,-0.7155,0,-0.6621,-0.6696,-0.6719,-0.6781,-0.682,-0.6835,-0.687,-0.6905,-0.6927,-0.6963,-0.6987,-0.7028,-0.7025,-0.7042,-0.7067,-0.7095,-0.7122,-0.7092,-0.7141,-0.7143,-0.713,-0.7173,-0.7173,-0.7212,-0.7161,-0.7162,-0.7163,0,-0.6683,-0.6721,-0.6788,-0.6832,-0.6849,-0.6881,-0.6924,-0.6958,-0.6997,-0.7011,-0.7041,-0.7055,-0.7097,-0.7086,-0.7144,-0.7123,-0.7144,-0.7161,-0.7163,-0.7169,-0.7155,-0.7179,-0.7225,-0.7231,-0.7172,-0.7172,-0.7171,0,-0.6702,-0.677,-0.6818,-0.6838,-0.6891,-0.6913,-0.6936,-0.6974,-0.6999,-0.7037,-0.7054,-0.7096,-0.7119,-0.715,-0.7174,-0.7164,-0.723,-0.7221,-0.7243,-0.7242,-0.7257,-0.7256,-0.7307,-0.7271,-0.7271,-0.727,-0.727,0,-0.6749,-0.6789,-0.6827,-0.6857,-0.6901,-0.6926,-0.6969,-0.6993,-0.7026,-0.7059,-0.7074,-0.7106,-0.7136,-0.7171,-0.719,-0.7234,-0.7245,-0.7257,-0.7262,-0.7256,-0.7254,-0.727,-0.7268,-0.7272,-0.7272,-0.7271,-0.7271,0,-0.6778,-0.6805,-0.6858,-0.6904,-0.6916,-0.6946,-0.6985,-0.7013,-0.7035,-0.7078,-0.7089,-0.7124,-0.7165,-0.7192,-0.7246,-0.7258,-0.7307,-0.7311,-0.7294,-0.7296,-0.7316,-0.7314,-0.7379,-0.7389,-0.7347,-0.7347,-0.7347,0,-0.6806,-0.6837,-0.6885,-0.6908,-0.6931,-0.6969,-0.6995,-0.702,-0.7046,-0.7092,-0.7114,-0.7157,-0.7192,-0.7257,-0.7287,-0.7327,-0.7332,-0.7352,-0.7338,-0.7331,-0.7332,-0.7329,-0.7332,-0.7355,-0.7355,-0.7355,-0.7355,0,-0.6853,-0.6864,-0.6901,-0.6942,-0.6973,-0.7006,-0.704,-0.7058,-0.7089,-0.7117,-0.716,-0.7187,-0.724,-0.7282,-0.7324,-0.7347,-0.7356,-0.7359,-0.7366,-0.7361,-0.7349,-0.7355,-0.73,-0.7358,-0.7358,-0.7358,-0.7357,-0.7357,-0.6882,-0.6909,-0.6947,-0.6987,-0.7014,-0.7045,-0.7074,-0.7099,-0.7135,-0.718,-0.7192,-0.7236,-0.7272,-0.733,-0.7353,-0.7388,-0.7385,-0.7396,-0.7398,-0.7401,-0.74,-0.7344,-0.7395,-0.7395,-0.7395,-0.7395,-0.7395,0,-0.6929,-0.6953,-0.699,-0.7036,-0.7067,-0.7072,-0.7109,-0.7134,-0.7173,-0.7205,-0.7239,-0.7287,-0.7327,-0.7359,-0.7399,-0.742,-0.7425,-0.743,-0.7429,-0.7434,-0.74,-0.739,-0.7425,-0.7425,-0.7425,-0.7425,-0.7425,-0.7425,-0.6957,-0.7003,-0.7019,-0.7078,-0.7102,-0.7145,-0.7165,-0.7193,-0.7219,-0.7271,-0.7304,-0.7325,-0.7357,-0.74,-0.7436,-0.7444,-0.7458,-0.7462,-0.7471,-0.7439,-0.7436,-0.7433,-0.7423,-0.7465,-0.7465,-0.7501,-0.7501,-0.7502]}]]